When you browse on this site, cookies collect data to enhance your experience and personalize the content and advertising you see.
Visit our Privacy Policy to learn more. By continuing to use the site, you agree to this use of cookies and data.
  • In Schweiz
  • Länderverzeichnis
  • Für 7 Tage
  • Wassertemperatur
  • Wetterkarte
  • Widgets
  • user-avatar
    Anmelden

    Stündliche Wetter Galle

    Heute, 19 Februar, Mittwoch

    Zeit Temperatur Niederschläge Wind Luftdruck Luftfeuchtigkeit
    00:00 +26°C° 0 mm 1 m/S 755 mmHg 85%
    01:00 +25°C° 0 mm 1 m/S 754 mmHg 86%
    02:00 +25°C° 0 mm 1 m/S 754 mmHg 87%
    03:00 +24°C° 0 mm 1 m/S 754 mmHg 89%
    04:00 +24°C° 0 mm 1 m/S 754 mmHg 90%
    05:00 +24°C° 0 mm 1 m/S 754 mmHg 91%
    06:00 +25°C° 0 mm 1 m/S 754 mmHg 86%
    07:00 +26°C° 0 mm 1 m/S 755 mmHg 81%
    08:00 +28°C° 0 mm 1 m/S 755 mmHg 77%
    09:00 +29°C° 0 mm 1 m/S 755 mmHg 69%
    10:00 +31°C° 0 mm 1 m/S 755 mmHg 61%
    11:00 +33°C° 0 mm 1 m/S 755 mmHg 54%
    12:00 +32°C° 0 mm 2 m/S 754 mmHg 56%
    13:00 +33°C° 0 mm 3 m/S 753 mmHg 58%
    14:00 +31°C° 0 mm 3 m/S 752 mmHg 60%
    15:00 +31°C° 0 mm 3 m/S 752 mmHg 64%
    16:00 +30°C° 0 mm 2 m/S 752 mmHg 68%
    17:00 +29°C° 0 mm 2 m/S 752 mmHg 72%
    18:00 +28°C° 0 mm 1 m/S 753 mmHg 75%
    19:00 +27°C° 0 mm 1 m/S 753 mmHg 79%
    20:00 +26°C° 0 mm 1 m/S 754 mmHg 82%
    21:00 +26°C° 0 mm 1 m/S 754 mmHg 83%
    22:00 +26°C° 0 mm 1 m/S 754 mmHg 85%
    23:00 +25°C° 0 mm 1 m/S 754 mmHg 86%

    Morgen, 20 Februar, Donnerstag

    Zeit Temperatur Niederschläge Wind Luftdruck Luftfeuchtigkeit
    00:00 +25°C° 0 mm 1 m/S 754 mmHg 87%
    01:00 +25°C° 0 mm 1 m/S 753 mmHg 88%
    02:00 +24°C° 0 mm 1 m/S 752 mmHg 90%
    03:00 +24°C° 0 mm 1 m/S 752 mmHg 90%
    04:00 +24°C° 0 mm 1 m/S 753 mmHg 91%
    05:00 +24°C° 0 mm 1 m/S 753 mmHg 92%
    06:00 +25°C° 0 mm 1 m/S 753 mmHg 86%
    07:00 +27°C° 0 mm 1 m/S 754 mmHg 80%
    08:00 +28°C° 0 mm 1 m/S 755 mmHg 75%
    09:00 +30°C° 0 mm 1 m/S 754 mmHg 68%
    10:00 +32°C° 0 mm 1 m/S 754 mmHg 61%
    11:00 +33°C° 0 mm 1 m/S 754 mmHg 54%
    12:00 +34°C° 0 mm 2 m/S 753 mmHg 56%
    13:00 +34°C° 0 mm 3 m/S 752 mmHg 57%
    14:00 +34°C° 0 mm 3 m/S 752 mmHg 58%
    15:00 +33°C° 0 mm 3 m/S 752 mmHg 62%
    16:00 +31°C° 0 mm 3 m/S 751 mmHg 67%
    17:00 +30°C° 0 mm 2 m/S 751 mmHg 71%
    18:00 +29°C° 0.1 mm 2 m/S 752 mmHg 74%
    19:00 +28°C° 0.1 mm 2 m/S 753 mmHg 77%
    20:00 +27°C° 0.1 mm 1 m/S 753 mmHg 81%
    21:00 +27°C° 0 mm 1 m/S 753 mmHg 82%
    22:00 +27°C° 0 mm 1 m/S 753 mmHg 82%
    23:00 +27°C° 0 mm 1 m/S 753 mmHg 83%

    übermorgen, 21 Februar, Freitag

    Zeit Temperatur Niederschläge Wind Luftdruck Luftfeuchtigkeit
    00:00 +27°C° 0 mm 1 m/S 753 mmHg 84%
    01:00 +26°C° 0 mm 1 m/S 752 mmHg 84%
    02:00 +26°C° 0 mm 2 m/S 752 mmHg 85%
    03:00 +26°C° 0 mm 2 m/S 752 mmHg 85%
    04:00 +26°C° 0 mm 1 m/S 752 mmHg 86%
    05:00 +26°C° 0 mm 1 m/S 752 mmHg 86%
    06:00 +27°C° 0 mm 1 m/S 753 mmHg 81%
    07:00 +28°C° 0 mm 1 m/S 754 mmHg 76%
    08:00 +30°C° 0 mm 1 m/S 754 mmHg 71%
    09:00 +31°C° 0 mm 1 m/S 754 mmHg 66%
    10:00 +34°C° 0 mm 2 m/S 754 mmHg 61%
    11:00 +35°C° 0 mm 3 m/S 754 mmHg 56%
    18:00 +29°C° 0.2 mm 2 m/S 753 mmHg 83%
    19:00 +28°C° 0.2 mm 2 m/S 754 mmHg 84%
    20:00 +28°C° 0.2 mm 1 m/S 754 mmHg 86%
    21:00 +27°C° 0 mm 2 m/S 755 mmHg 86%
    22:00 +27°C° 0 mm 2 m/S 755 mmHg 87%
    23:00 +27°C° 0 mm 2 m/S 755 mmHg 87%

    22 Februar, Samstag

    Zeit Temperatur Niederschläge Wind Luftdruck Luftfeuchtigkeit
    00:00 +26°C° 0 mm 2 m/S 754 mmHg 87%
    01:00 +26°C° 0 mm 2 m/S 754 mmHg 87%
    02:00 +26°C° 0 mm 2 m/S 753 mmHg 87%
    03:00 +26°C° 0 mm 2 m/S 753 mmHg 87%
    04:00 +26°C° 0 mm 2 m/S 753 mmHg 86%
    05:00 +26°C° 0 mm 2 m/S 753 mmHg 86%
    06:00 +27°C° 0 mm 1 m/S 754 mmHg 81%
    07:00 +28°C° 0 mm 1 m/S 754 mmHg 77%
    08:00 +29°C° 0 mm 1 m/S 755 mmHg 72%
    09:00 +31°C° 0 mm 1 m/S 755 mmHg 66%
    10:00 +32°C° 0 mm 2 m/S 755 mmHg 60%
    11:00 +35°C° 0 mm 2 m/S 755 mmHg 54%
    12:00 +34°C° 1.6 mm 2 m/S 754 mmHg 63%
    13:00 +31°C° 1.6 mm 2 m/S 753 mmHg 71%
    14:00 +30°C° 1.6 mm 2 m/S 753 mmHg 80%
    15:00 +29°C° 1 mm 2 m/S 753 mmHg 81%
    16:00 +29°C° 1 mm 2 m/S 753 mmHg 81%
    17:00 +28°C° 1 mm 1 m/S 753 mmHg 82%
    18:00 +28°C° 0 mm 1 m/S 754 mmHg 83%
    19:00 +28°C° 0 mm 2 m/S 754 mmHg 84%
    20:00 +27°C° 0 mm 2 m/S 755 mmHg 86%
    21:00 +27°C° 0 mm 2 m/S 755 mmHg 86%
    22:00 +26°C° 0 mm 2 m/S 755 mmHg 87%
    23:00 +26°C° 0 mm 2 m/S 755 mmHg 88%

    23 Februar, Sonntag

    Zeit Temperatur Niederschläge Wind Luftdruck Luftfeuchtigkeit
    00:00 +26°C° 0 mm 2 m/S 754 mmHg 88%
    01:00 +25°C° 0 mm 2 m/S 754 mmHg 89%
    02:00 +25°C° 0 mm 2 m/S 753 mmHg 89%
    03:00 +25°C° 0 mm 2 m/S 753 mmHg 89%
    04:00 +25°C° 0 mm 1 m/S 753 mmHg 88%
    05:00 +25°C° 0 mm 1 m/S 753 mmHg 88%
    06:00 +26°C° 0 mm 1 m/S 753 mmHg 84%
    07:00 +27°C° 0 mm 1 m/S 754 mmHg 80%
    08:00 +28°C° 0 mm 1 m/S 754 mmHg 76%
    09:00 +30°C° 0 mm 1 m/S 754 mmHg 70%
    10:00 +31°C° 0 mm 1 m/S 754 mmHg 64%
    11:00 +34°C° 0 mm 2 m/S 754 mmHg 59%
    12:00 +32°C° 0.3 mm 2 m/S 753 mmHg 64%
    13:00 +32°C° 0.3 mm 2 m/S 753 mmHg 69%
    14:00 +31°C° 0.3 mm 3 m/S 752 mmHg 74%
    15:00 +30°C° 0.7 mm 2 m/S 752 mmHg 77%
    16:00 +30°C° 0.7 mm 2 m/S 752 mmHg 81%
    17:00 +29°C° 0.7 mm 1 m/S 752 mmHg 84%
    18:00 +29°C° 0.2 mm 1 m/S 753 mmHg 85%
    19:00 +28°C° 0.2 mm 1 m/S 753 mmHg 85%
    20:00 +28°C° 0.2 mm 1 m/S 754 mmHg 86%
    21:00 +27°C° 0 mm 1 m/S 754 mmHg 87%
    22:00 +27°C° 0 mm 2 m/S 754 mmHg 87%
    23:00 +26°C° 0 mm 2 m/S 754 mmHg 88%

    24 Februar, Montag

    Zeit Temperatur Niederschläge Wind Luftdruck Luftfeuchtigkeit
    00:00 +26°C° 0 mm 2 m/S 753 mmHg 89%
    01:00 +26°C° 0 mm 2 m/S 753 mmHg 89%
    02:00 +25°C° 0 mm 2 m/S 752 mmHg 90%
    03:00 +25°C° 0 mm 2 m/S 752 mmHg 90%
    04:00 +25°C° 0 mm 2 m/S 752 mmHg 90%
    05:00 +25°C° 0 mm 2 m/S 753 mmHg 89%
    06:00 +26°C° 0 mm 1 m/S 753 mmHg 85%
    07:00 +27°C° 0 mm 1 m/S 754 mmHg 81%
    08:00 +28°C° 0 mm 1 m/S 754 mmHg 77%
    09:00 +30°C° 0 mm 1 m/S 754 mmHg 70%
    10:00 +32°C° 0 mm 1 m/S 754 mmHg 63%
    11:00 +33°C° 0 mm 1 m/S 754 mmHg 56%
    12:00 +34°C° 0 mm 2 m/S 753 mmHg 58%
    13:00 +34°C° 0 mm 3 m/S 752 mmHg 60%
    14:00 +33°C° 0 mm 3 m/S 751 mmHg 62%
    15:00 +31°C° 0.3 mm 3 m/S 751 mmHg 68%
    16:00 +30°C° 0.3 mm 3 m/S 752 mmHg 74%
    17:00 +29°C° 0.3 mm 2 m/S 752 mmHg 80%
    18:00 +29°C° 0.6 mm 2 m/S 752 mmHg 83%
    19:00 +28°C° 0.6 mm 2 m/S 753 mmHg 86%
    20:00 +27°C° 0.6 mm 2 m/S 753 mmHg 89%
    21:00 +27°C° 0 mm 1 m/S 753 mmHg 89%
    22:00 +27°C° 0 mm 1 m/S 753 mmHg 89%
    23:00 +26°C° 0 mm 1 m/S 753 mmHg 89%
    Mehr zeigen